Volver al catálogo

TANSEI 3 DEB

ActivoUNKNOWN
NORAD 12857·DEBRIS·🇯🇵 Japan

Lanzado Feb 19, 1977 desde Uchinoura Space Center

Loading…

Próximos Pases (próximas 24 horas)

TLE

ActualizadoSource: Space-Track

Época: Sep 14, 2026, 06:45 UTC

1 12857U 77012H   26257.28143281  .00000099  00000-0  38918-3 0  9991
2 12857  66.2919 210.7170 1695892 160.4216 207.0823 10.78649634781305

Sigue TANSEI 3 DEB en tiempo real con AllMySat

Download on the App Store